TIME,DELAY(SENSOR),PRES,OXYGEN,RAWTEMP,T(OPTODE),TCPHASE,FLUOR,BETA(BETA700),BETA(BETA412),BETA(BETA440),CDOM,C(CSC),ED(ED411.90),ED(ED443.80),ED(ED489.40),ED(ED554.70),LU(LU412.20),LU(LU443.80),LU(LU489.40),LU(LU555.00),COMP,TILTX,TILTY,CHECK
1343082343,5805,856.2100219726562000,170.5924072265625000,401.1411132812500000,10.5679101943969730,38.2013702392578100,53,101,99,79,80,14217,2146951515,2147519469,2147281792,2147503670,2147093037,2146930633,2147697920,2147121837,1683,-2,8,15735
1343085939,5806,981.4199829101562000,188.8130950927734400,479.5566101074219000,8.1623735427856450,38.2560310363769500,52,104,99,79,81,14208,2146956964,2147513206,2147292324,2147518838,2147088731,2146922742,2147707968,2147119213,861,-1,8,49595
1343089539,5808,1004.1900024414062000,197.2097015380859400,492.6583862304687500,7.7570810317993160,37.9450187683105500,53,104,99,79,82,14207,2146956041,2147509430,2147291849,2147522340,2147090240,2146925092,2147713837,2147122752,193,-1,8,30921
1343093139,5807,1006.5800170898438000,200.0908966064453000,495.8804931640625000,7.6572399139404300,37.8212699890136700,53,106,101,80,81,14205,2146956992,2147515401,2147294262,2147521910,2147090121,2146926281,2147713600,2147119369,65,-1,7,59579
1343096739,5805,1007.5000000000000000,201.5180053710937500,498.0448913574219000,7.5901370048522950,37.7717285156250000,52,104,100,80,82,14197,2146959350,2147517412,2147294144,2147522422,2147090934,2146922916,2147717229,2147119012,480,-2,8,43117
1343100339,5808,1012.0900268554688000,201.8977966308593800,500.8723144531250000,7.5024271011352540,37.7980690002441400,52,102,101,79,82,14192,2146959433,2147516461,2147294299,2147523236,2147088886,2146924425,2147718080,2147120036,61,-1,8,44829
1343103939,5804,1011.1699829101562000,201.9674072265625000,503.1332092285156000,7.4322571754455570,37.8328590393066400,53,104,100,79,81,14187,2146959277,2147518537,2147292635,2147524726,2147089718,2146925467,2147716352,2147119506,3286,-1,8,2538
1343107539,5806,1014.0599975585938000,202.9201965332031200,504.7828979492187500,7.3810329437255860,37.8031501770019500,53,105,102,80,81,14189,2146959945,2147515949,2147294171,2147519570,2147088521,2146917970,2147718473,2147119899,3282,-2,8,24236
1343111139,5807,1014.2399902343750000,205.0323028564453000,506.5239868164062500,7.3269491195678710,37.7061996459960940,52,105,101,80,81,14186,2146957942,2147516955,2147293558,2147523510,2147089325,2146916370,2147721810,2147117037,407,-2,8,46230
1343114739,5805,1010.5800170898438000,206.0160980224609400,508.4880981445312500,7.2659158706665040,37.6819801330566400,52,106,101,79,83,14189,2146961536,2147520246,2147292086,2147523757,2147095579,2146928731,2147716772,2147118070,301,-2,8,14156
1343118339,5805,1018.4699707031250000,206.7610015869140600,507.2677001953125000,7.3038430213928220,37.6159400939941400,53,106,100,81,81,14183,2146959844,2147517504,2147294976,2147522916,2147088850,2146919076,2147720448,2147119862,1909,-1,8,29911
1343121939,5806,1023.7700195312500000,205.0966033935547000,505.1604003906250000,7.3693079948425290,37.6783103942871100,53,105,100,80,82,14185,2146958134,2147516196,2147293174,2147523072,2147088118,2146921682,2147719625,2147116461,3080,-2,8,44657
1343125539,5804,1025.6899414062500000,204.0276947021484400,503.5357971191406000,7.4197568893432620,37.7149887084960940,53,103,100,79,81,14183,2146956443,2147518820,2147291584,2147525156,2147088905,2146924416,2147720210,2147119753,2934,-1,8,13506
1343129139,5805,1026.5999755859375000,203.5942993164062500,502.8952026367187500,7.4396457672119140,37.7294197082519500,53,105,102,78,82,14173,2146957869,2147517449,2147296036,2147523218,2147087744,2146921526,2147717403,2147119625,3196,-1,8,9212
1343132739,5805,1025.7199707031250000,203.9002990722656200,503.8493957519531000,7.4100189208984375,37.7273292541503900,52,104,99,79,82,14176,2146958518,2147515977,2147294646,2147522075,2147093101,2146919488,2147720301,2147118665,3037,-1,8,27513
1343136339,5805,1022.2000122070312000,205.2774963378906200,506.4323120117187500,7.3298001289367680,37.6903915405273440,53,110,99,80,82,14172,2146959369,2147516544,2147293558,2147521161,2147092361,2146920905,2147719122,2147118235,3316,-1,8,19732
1343139939,5805,1022.0999755859375000,206.2682037353515600,506.8731994628906000,7.3160991668701170,37.6382904052734400,53,105,102,78,83,14174,2146956827,2147517449,2147298176,2147523483,2147091803,2146921398,2147716525,2147118582,3300,-2,8,15214
1343143539,5805,1021.7500000000000000,205.8488006591797000,506.9952087402344000,7.3123102188110350,37.6657218933105500,52,104,101,80,81,14171,2146957604,2147520557,2147295524,2147523373,2147089910,2146919241,2147721115,2147117193,2976,-2,8,37057
1343147139,5804,1021.7500000000000000,206.5979003906250000,507.2955017089844000,7.3029780387878420,37.6263694763183600,53,105,101,79,82,14169,2146957394,2147516900,2147295405,2147521709,2147091190,2146919753,2147720429,2147116224,3491,-2,8,14755
1343150739,5807,1020.8099975585938000,208.0292968750000000,508.3033142089844000,7.2716588973999020,37.5584602355957000,53,105,101,79,81,14165,2146959305,2147514706,2147295972,2147524004,2147086793,2146924059,2147716507,2147120036,484,-1,8,34107
1343154339,5806,1025.8499755859375000,206.9277038574218800,507.2710876464844000,7.3037347793579100,37.6061592102050800,53,105,100,80,81,14153,2146960868,2147517760,2147295670,2147523721,2147088310,2146921563,2147720118,2147119168,175,-2,8,40886
1343157939,5807,1027.8100585937500000,206.5989990234375000,507.2107849121094000,7.3056120872497560,37.6242408752441400,52,105,101,79,82,14157,2146956050,2147518198,2147295387,2147520502,2147090093,2146922121,2147721462,2147119076,151,-1,8,36674
1343161539,5805,1023.7899780273438000,206.5800018310547000,507.3752136230469000,7.3005018234252930,37.6279296875000000,53,106,101,78,81,14156,2146959149,2147516214,2147296713,2147522450,2147091245,2146917330,2147721590,2147117284,240,-2,8,25390
1343165139,5807,1023.8800048828125000,206.4907073974609400,507.5539855957031000,7.2949471473693850,37.6368789672851560,53,106,101,80,82,14154,2146960905,2147515072,2147297188,2147519771,2147090788,2146917202,2147720694,2147117275,162,-1,8,47934
1343168739,5808,1030.3299560546875000,206.1445007324218800,506.5120849609375000,7.3273191452026370,37.6397590637207000,53,104,101,79,82,14148,2146956973,2147515392,2147298459,2147519497,2147090660,2146917942,2147719067,2147117211,863,-2,8,14158
1343172339,5807,1022.0399780273438000,205.6696929931640600,507.7731933593750000,7.2881340980529785,37.6897010803222660,52,102,100,80,82,14154,2146957284,2147513124,2147294555,2147521289,2147089709,2146920804,2147716050,2147119186,3278,-2,8,45548
1343175939,5805,1026.4799804687500000,206.3520965576172000,507.4428100585937500,7.2984018325805660,37.6431884765625000,53,106,101,80,82,14149,2146957339,2147519241,2147296978,2147523602,2147088411,2146919113,2147715693,2147120749,871,-2,8,39384
1343179539,5805,1025.3599853515625000,205.5554046630859400,507.6276855468750000,7.2926568984985350,37.6940994262695300,53,101,102,80,81,14146,2146958820,2147516553,2147293814,2147524736,2147089462,2146918838,2147714669,2147119213,161,-2,8,11305
1343183139,5807,1026.9200439453125000,205.4201049804687500,506.9599914550781000,7.3134040832519530,37.6909599304199200,52,102,101,79,82,14152,2146954614,2147520768,2147296219,2147525056,2147090496,2146915611,2147718217,2147122148,34,-2,8,4058
1343186739,5806,1032.7900390625000000,204.9915008544922000,506.7336120605469000,7.3204379081726070,37.7122306823730500,53,105,102,80,82,14148,2146959990,2147517814,2147293312,2147523520,2147091986,2146915968,2147714258,2147119222,364,-2,8,46399
1343190339,5805,1027.7500000000000000,204.6851959228515600,506.7775878906250000,7.3190717697143555,37.7316513061523440,52,106,102,79,82,14148,2146957586,2147520109,2147295122,2147520813,2147094253,2146918144,2147716141,2147121362,512,-1,8,45681
1343193939,5806,1029.9100341796875000,204.6743011474609400,507.7101135253906000,7.2900948524475100,37.7491493225097660,52,104,101,81,81,14151,2146956434,2147518674,2147294528,2147523840,2147085037,2146917888,2147720374,2147120155,967,-2,8,32709
1343197539,5808,1026.3599853515625000,205.4472045898437500,508.3299865722656000,7.2708277702331540,37.7126693725585940,52,103,102,79,82,14152,2146955794,2147518153,2147296365,2147524050,2147091739,2146919405,2147716178,2147120448,819,-1,7,1465
1343201139,5805,1028.0200195312500000,207.6412963867187500,508.6200866699219000,7.2618131637573240,37.5866508483886700,52,108,100,80,81,14152,2146955675,2147516955,2147296393,2147522413,2147091675,2146921170,2147715977,2147123748,3319,-2,8,1684
1343204739,5806,1027.8900146484375000,207.6446990966797000,508.3214111328125000,7.2710962295532230,37.5818595886230500,52,103,105,79,81,14146,2146958445,2147515337,2147296228,2147521298,2147090313,2146918829,2147716352,2147119597,3091,-1,8,35492
1343208339,5807,1030.1600341796875000,207.3161926269531200,508.2283020019531000,7.2739920616149900,37.5996208190918000,53,105,101,79,81,14148,2146959058,2147513179,2147292443,2147520941,2147090194,2146921654,2147717083,2147119981,68,-1,8,63195
1343211939,5805,1029.4300537109375000,207.0726928710937500,507.9151000976562500,7.2837238311767580,37.6081008911132800,52,106,100,78,81,14154,2146958171,2147516918,2147293888,2147522880,2147093092,2146914733,2147715446,2147117092,3328,-2,8,32112
1343215539,5804,1030.7399902343750000,206.5816955566406200,508.1099853515625000,7.2776689529418945,37.6414985656738300,52,106,102,78,81,14147,2146956845,2147515337,2147295277,2147523812,2147091254,2146915968,2147714486,2147118153,22,-2,8,21147
1343219139,5806,1034.2700195312500000,206.8777008056640600,507.9361877441406000,7.2830700874328610,37.6206817626953100,53,103,101,79,82,14146,2146957723,2147513508,2147296850,2147526134,2147092507,2146919826,2147717769,2147118592,121,-1,8,27403
1343222739,5803,1029.5500488281250000,206.7590026855468800,507.9744873046875000,7.2818770408630370,37.6285095214843750,53,104,101,79,82,14146,2146957412,2147512987,2147293979,2147519414,2147091355,2146927478,2147717513,2147118336,3330,-1,8,46192
1343224255,5805,1029.5500488281250000,205.9951019287109400,508.5046997070312500,7.2653989791870120,37.6835517883300800,53,106,99,78,81,14154,2146958930,2147516269,2147293385,2147523885,2147092233,2146916827,2147718793,2147118528,2987,-1,8,15507
